Wind_Speed
25 25 25 25 25 25 25 25 25 25 25 25 26 26 26 27 27 27 27 27 27 27 27 27 27 28 28 28 29 30 30 30 31 31 30 31 30 30 29 30 32 33 33
26 26 26 26 26 26 26 26 25 25 25 25 26 26 26 26 26 26 26 26 26 26 25 26 26 27 27 28 29 29 30 30 30 30 30 30 30 30 30 30 31 32 32
27 27 26 26 26 26 26 26 25 25 24 24 25 25 26 26 27 27 26 26 25 25 25 26 26 26 26 27 27 27 28 28 29 29 29 29 29 29 29 28 28 29 29
26 26 26 27 27 26 26 25 25 25 25 25 25 25 26 26 26 26 26 25 25 25 25 25 25 25 25 26 27 27 27 27 27 28 27 28 28 27 27 28 28 28 28
26 25 25 25 25 25 25 25 25 25 25 25 25 26 26 26 26 26 25 24 24 24 24 24 24 24 25 25 25 25 26 26 25 25 25 25 26 27 27 27 27 27 27
24 25 25 25 25 24 24 25 25 24 25 24 25 25 25 25 25 25 24 24 23 23 23 22 22 21 22 22 22 22 23 23 24 24 25 24 24 24 24 25 25 24 25
23 23 23 24 24 23 23 23 23 23 23 23 23 22 22 22 22 23 23 22 22 21 20 19 18 18 18 18 19 19 19 20 21 22 22 21 21 21 21 21 21 21 21
22 22 22 22 22 22 22 22 21 21 20 20 20 21 21 20 20 21 21 20 20 20 19 18 17 17 17 16 17 17 18 18 19 19 19 19 19 19 19 19 19 18 18
21 22 22 22 21 21 20 19 19 18 18 18 18 18 18 18 19 19 19 19 19 18 17 17 17 16 16 15 15 15 15 15 15 16 17 16 16 16 17 16 15 15 15
19 19 19 19 19 18 18 17 17 17 16 15 15 15 15 15 16 16 16 16 16 15 15 14 14 13 13 13 13 12 12 12 12 12 12 12 13 13 12 11 11 11 11
17 17 16 16 15 15 15 15 14 13 13 12 11 11 11 11 12 12 12 12 12 12 12 12 11 11 10 10 10 9 9 9 9 9 9 9 9 8 8 8 8 8 8
14 13 13 13 12 12 11 10 10 9 9 8 8 8 7 7 7 8 8 9 9 9 9 9 9 9 8 7 7 7 7 7 6 6 5 5 5 5 5 5 5 5 5
10 9 10 9 9 8 7 7 7 6 6 5 4 4 5 5 5 5 5 6 6 6 6 6 6 7 7 7 7 6 5 4 4 4 4 3 3 3 2 2 2 2 3
8 7 7 6 6 5 4 4 4 3 3 2 2 2 3 5 4 4 4 4 4 4 5 6 6 5 6 6 6 6 5 5 5 4 3 3 2 2 2 1 0 1 2
5 5 4 4 3 3 2 1 1 0 1 1 2 2 3 3 4 4 4 5 5 5 6 6 7 7 7 8 8 7 7 6 5 5 4 4 4 4 4 3 3 2 3
3 2 3 2 3 3 3 3 3 3 3 4 4 5 5 4 5 5 5 6 7 7 8 8 9 9 9 9 9 8 8 8 7 7 7 7 6 6 5 5 5 4 4
4 3 4 4 4 4 4 4 4 4 5 5 5 6 6 6 6 7 7 8 8 9 10 10 11 11 11 10 10 10 9 9 9 9 9 8 8 7 6 6 5 5 5
4 4 4 5 5 5 5 6 6 6 6 7 7 8 8 9 9 10 10 10 11 11 11 12 12 12 12 12 12 12 11 11 11 10 10 9 8 7 6 6 5 5 6
6 6 6 6 6 7 8 8 8 8 8 8 9 10 10 10 11 11 11 11 12 13 13 13 13 13 13 13 13 13 13 12 11 10 9 9 8 7 6 6 6 7 7
8 8 8 9 9 10 10 10 10 10 10 11 12 12 12 12 12 12 13 13 14 14 15 15 15 15 15 15 14 14 13 12 11 10 9 8 7 7 6 7 7 8 9
11 10 11 11 11 11 11 11 11 12 13 14 14 14 14 14 14 14 14 15 15 16 16 16 17 17 16 15 15 14 13 12 11 10 9 8 8 7 8 8 8 9 11
11 11 12 12 12 12 13 13 14 14 15 15 15 14 14 15 15 15 16 16 16 17 17 17 17 17 16 15 14 13 12 11 10 9 8 8 8 8 8 8 10 11 13
12 12 12 12 13 13 14 15 15 15 15 15 15 15 15 15 16 16 16 16 17 17 17 17 17 16 15 14 12 11 10 9 8 8 7 7 7 7 9 11 12 13 15
12 12 13 13 13 14 14 14 14 14 15 15 15 16 16 16 16 16 16 16 16 17 16 16 15 13 12 11 10 10 9 8 7 7 6 7 8 9 11 13 14 16 18
12 12 13 13 13 13 13 14 14 14 14 14 15 15 15 15 15 15 15 15 15 15 14 13 12 11 10 9 8 7 6 6 6 6 7 8 9 11 13 14 16 18 20
11 11 11 12 12 12 13 13 13 13 13 13 13 13 13 13 13 13 13 13 13 13 12 11 10 9 8 7 6 5 5 5 6 7 8 9 11 13 15 16 18 21 23
Wind_Direction
281 281 280 280 279 278 278 277 278 277 273 270 270 268 266 265 264 265 267 267 267 266 264 262 260 260 258 258 256 255 255 256 256 257 258 258 259 259 261 263 263 263 265
282 281 280 279 279 279 279 278 278 277 275 272 270 269 267 264 264 265 268 267 266 263 262 262 261 261 258 256 256 254 255 255 255 256 257 258 258 259 260 262 263 263 265
281 281 279 278 278 278 278 278 277 276 275 274 273 270 268 267 266 266 267 267 266 264 262 262 263 263 259 256 255 255 254 253 253 255 257 257 258 259 260 260 261 263 264
280 280 280 278 277 277 278 278 277 275 275 274 273 272 271 269 268 267 267 267 266 264 263 263 263 261 259 257 256 256 255 254 253 255 256 257 257 257 259 259 259 262 265
280 280 281 280 279 278 277 277 276 276 275 275 273 272 270 269 268 267 267 266 265 264 264 263 262 261 260 258 256 256 255 254 253 255 257 258 258 257 257 258 260 264 266
282 281 282 280 280 280 278 278 277 276 275 274 274 272 270 269 268 267 266 264 264 265 264 262 261 260 260 258 257 256 255 254 252 253 255 256 257 257 256 258 261 265 266
283 283 283 283 282 281 280 279 279 277 277 275 275 274 272 270 269 267 266 264 262 261 258 256 256 258 259 257 257 256 255 253 251 251 254 255 256 256 258 261 263 266 271
283 284 284 283 282 282 281 281 280 279 277 275 275 275 272 270 269 268 267 265 261 259 257 256 255 256 256 256 255 253 252 253 251 250 250 253 256 257 261 263 266 271 275
283 285 285 283 280 280 281 281 281 281 280 279 277 276 272 269 267 265 263 261 257 254 254 253 252 252 251 251 251 250 249 248 248 248 249 251 253 256 260 263 267 274 277
285 285 285 285 282 280 280 280 281 281 282 280 278 275 271 267 264 261 258 253 250 248 249 247 248 250 249 246 245 247 248 243 243 242 246 249 253 254 257 260 266 273 278
287 287 287 287 286 285 284 281 281 280 279 276 274 273 270 266 259 254 251 244 241 243 244 243 245 244 242 239 241 245 248 249 249 246 247 249 254 255 258 263 270 276 281
291 290 292 292 291 289 286 281 280 278 274 272 270 266 264 259 250 243 239 235 230 235 236 235 231 225 220 223 233 241 242 239 239 241 241 242 245 249 252 260 268 275 283
298 298 299 298 297 293 288 280 272 272 269 263 254 241 242 231 221 220 217 212 209 211 213 214 217 216 211 210 210 213 217 214 208 209 207 214 221 231 238 249 265 279 299
303 303 304 305 303 301 298 288 279 274 265 246 236 219 195 188 192 188 180 172 172 179 189 193 191 188 185 180 183 184 183 177 171 173 179 179 169 151 142 134 63 28 3
308 313 315 322 332 338 338 322 293 187 139 120 150 156 152 162 175 174 165 160 158 155 155 158 158 157 154 154 153 154 154 152 149 145 138 129 124 120 117 108 92 72 47
346 354 3 21 42 48 65 85 96 101 97 96 111 128 128 127 134 145 151 152 148 143 143 142 141 141 140 140 139 137 133 130 128 126 123 121 119 114 106 96 83 67 50
26 38 48 59 69 74 80 85 93 92 95 102 110 121 125 123 124 126 131 134 135 135 134 134 134 135 135 134 134 131 128 126 123 120 117 112 106 99 92 82 68 52 35
50 59 66 73 79 82 85 90 94 94 99 103 108 112 114 116 117 118 119 123 128 130 132 132 130 129 129 128 128 126 123 120 117 112 107 101 95 88 80 68 52 36 22
66 69 73 81 86 92 94 94 96 96 100 107 112 113 113 113 114 116 118 120 122 125 127 127 125 126 126 125 121 117 115 112 109 105 100 95 88 79 68 57 43 30 17
70 77 81 87 94 97 96 95 95 95 99 105 108 109 109 109 111 115 117 117 118 119 121 122 123 123 121 119 116 114 111 108 104 100 94 88 81 71 59 46 33 20 10
77 81 84 88 93 95 95 94 94 97 100 103 106 107 107 107 109 112 115 115 115 117 119 118 119 118 117 115 113 110 107 104 101 95 88 80 70 58 46 35 23 12 3
82 84 85 88 91 92 94 96 97 99 101 103 106 107 107 107 109 111 113 114 115 117 117 118 117 116 115 113 109 106 105 102 97 91 81 69 56 44 32 18 7 0 355
84 85 87 90 93 95 97 98 99 100 102 103 105 106 107 107 109 110 111 111 113 116 117 118 117 115 113 111 107 104 102 98 90 79 67 54 39 26 14 6 0 356 352
84 87 90 92 96 98 99 99 100 102 104 105 105 106 107 108 109 111 112 114 116 117 117 117 116 115 112 109 106 102 95 86 74 61 46 31 19 9 1 357 354 351 348
86 89 91 93 97 100 100 101 103 104 106 108 108 108 108 110 113 115 116 117 118 118 118 117 116 113 110 106 100 92 80 65 49 34 22 12 4 359 355 352 350 347 344
89 91 93 95 97 101 103 105 106 107 108 109 111 111 112 115 117 118 118 119 120 120 119 116 113 108 102 94 83 70 54 38 23 13 6 0 355 352 349 347 344 342 340
Height
5782 5781 5779 5778 5777 5776 5775 5773 5772 5771 5770 5770 5770 5770 5770 5770 5771 5771 5771 5771 5772 5771 5772 5772 5773 5774 5775 5776 5778 5780 5781 5783 5784 5786 5787 5788 5789 5790 5790 5791 5791 5792 5792
5775 5773 5772 5771 5770 5768 5767 5766 5765 5764 5763 5762 5762 5762 5762 5762 5763 5763 5764 5764 5764 5764 5764 5765 5766 5767 5768 5769 5771 5772 5774 5775 5777 5778 5779 5780 5782 5782 5783 5784 5784 5784 5784
5767 5766 5764 5763 5762 5761 5759 5758 5757 5757 5756 5755 5755 5755 5754 5755 5755 5756 5756 5756 5757 5757 5757 5758 5759 5760 5761 5762 5763 5765 5766 5768 5769 5770 5771 5773 5774 5775 5776 5777 5777 5777 5777
5759 5758 5757 5755 5754 5753 5752 5751 5750 5749 5749 5748 5748 5747 5747 5747 5747 5748 5748 5749 5749 5750 5750 5751 5752 5753 5754 5755 5756 5757 5759 5760 5762 5763 5765 5766 5767 5769 5769 5770 5771 5771 5771
5752 5751 5749 5748 5746 5745 5744 5743 5742 5742 5741 5741 5740 5740 5740 5740 5740 5740 5741 5741 5742 5743 5743 5744 5745 5746 5747 5748 5749 5751 5752 5753 5755 5756 5758 5759 5761 5762 5763 5764 5765 5765 5765
5744 5743 5742 5740 5739 5738 5737 5736 5735 5735 5734 5733 5733 5733 5733 5733 5733 5733 5734 5734 5735 5736 5737 5737 5738 5739 5740 5742 5743 5744 5745 5747 5749 5750 5752 5753 5755 5756 5757 5758 5759 5759 5760
5737 5736 5735 5733 5732 5731 5730 5729 5728 5727 5727 5726 5726 5726 5726 5726 5726 5727 5727 5728 5729 5730 5731 5732 5733 5734 5735 5736 5737 5738 5740 5741 5743 5745 5746 5748 5749 5750 5752 5752 5753 5754 5754
5731 5730 5728 5727 5726 5725 5723 5722 5722 5721 5720 5720 5719 5719 5719 5720 5720 5720 5721 5722 5723 5724 5725 5726 5728 5729 5730 5731 5733 5734 5735 5736 5738 5740 5742 5743 5744 5745 5747 5748 5748 5749 5749
5725 5723 5722 5720 5719 5718 5717 5716 5716 5715 5714 5714 5714 5713 5713 5714 5714 5715 5716 5717 5718 5719 5720 5722 5723 5725 5726 5727 5729 5730 5731 5732 5734 5735 5737 5738 5740 5741 5742 5743 5744 5745 5745
5719 5717 5716 5715 5713 5713 5712 5711 5710 5710 5709 5709 5708 5708 5708 5709 5709 5710 5711 5712 5714 5715 5717 5718 5720 5721 5722 5724 5725 5727 5728 5729 5731 5732 5733 5735 5736 5737 5738 5739 5740 5741 5741
5713 5712 5711 5710 5709 5708 5707 5706 5706 5705 5705 5705 5704 5704 5704 5705 5705 5706 5707 5709 5711 5712 5714 5715 5717 5718 5720 5721 5723 5724 5726 5727 5728 5730 5731 5732 5734 5735 5736 5737 5738 5738 5739
5709 5708 5707 5706 5704 5703 5703 5702 5702 5702 5702 5701 5701 5701 5702 5702 5703 5704 5705 5707 5708 5710 5712 5713 5715 5716 5718 5720 5721 5723 5724 5726 5727 5728 5730 5731 5732 5733 5734 5735 5736 5736 5736
5706 5705 5704 5703 5702 5701 5700 5700 5700 5699 5699 5699 5699 5700 5700 5701 5702 5703 5704 5705 5707 5709 5711 5712 5714 5716 5717 5719 5721 5722 5723 5725 5726 5728 5729 5730 5731 5732 5733 5734 5734 5735 5735
5704 5703 5702 5701 5700 5699 5699 5698 5698 5698 5698 5698 5699 5699 5700 5701 5701 5703 5704 5705 5707 5708 5710 5712 5714 5715 5717 5719 5721 5722 5724 5725 5727 5728 5729 5730 5731 5732 5732 5733 5734 5734 5734
5703 5702 5701 5700 5699 5698 5698 5698 5698 5698 5698 5699 5699 5699 5700 5701 5702 5703 5704 5706 5707 5709 5711 5712 5714 5716 5718 5719 5721 5723 5724 5726 5727 5728 5729 5730 5731 5732 5733 5733 5734 5734 5734
5702 5702 5701 5700 5699 5699 5699 5699 5699 5699 5699 5699 5699 5700 5701 5702 5702 5704 5705 5706 5708 5710 5712 5713 5715 5717 5719 5721 5722 5724 5725 5727 5728 5729 5730 5731 5732 5733 5734 5734 5734 5734 5734
5703 5702 5702 5701 5701 5700 5700 5700 5700 5700 5700 5700 5700 5701 5702 5703 5704 5705 5706 5708 5709 5711 5713 5714 5716 5718 5720 5722 5724 5725 5727 5728 5730 5731 5732 5733 5734 5734 5735 5735 5735 5735 5735
5704 5703 5703 5702 5702 5702 5702 5702 5702 5702 5702 5702 5703 5703 5704 5705 5706 5707 5708 5710 5711 5713 5715 5717 5718 5720 5722 5724 5726 5727 5729 5730 5732 5733 5734 5735 5735 5736 5736 5736 5736 5735 5735
5706 5705 5705 5704 5704 5704 5704 5704 5704 5704 5704 5705 5705 5706 5707 5708 5709 5710 5711 5713 5714 5716 5717 5719 5721 5723 5725 5727 5728 5730 5731 5733 5734 5735 5736 5737 5737 5737 5737 5737 5736 5736 5734
5708 5708 5708 5707 5707 5707 5707 5707 5707 5707 5707 5708 5709 5709 5710 5711 5712 5714 5715 5716 5717 5719 5721 5723 5725 5726 5728 5730 5731 5733 5734 5736 5737 5737 5738 5738 5738 5738 5738 5737 5737 5736 5734
5712 5711 5711 5711 5711 5710 5710 5710 5710 5711 5711 5712 5713 5714 5714 5715 5716 5717 5719 5720 5721 5723 5725 5727 5728 5730 5732 5733 5735 5736 5737 5738 5739 5739 5740 5740 5740 5739 5739 5738 5737 5735 5734
5716 5716 5715 5715 5715 5715 5715 5715 5715 5715 5716 5716 5717 5718 5719 5720 5721 5722 5723 5725 5726 5727 5729 5731 5732 5734 5736 5737 5738 5739 5740 5741 5741 5741 5741 5741 5741 5740 5739 5738 5737 5735 5733
5721 5720 5720 5720 5720 5720 5720 5720 5720 5721 5721 5722 5723 5723 5724 5725 5726 5727 5728 5729 5731 5732 5734 5735 5737 5738 5739 5740 5741 5742 5743 5743 5743 5743 5743 5742 5742 5741 5740 5738 5736 5734 5732
5725 5725 5725 5725 5725 5725 5725 5725 5725 5726 5727 5727 5728 5729 5729 5730 5731 5732 5733 5735 5736 5737 5738 5740 5741 5742 5743 5744 5744 5745 5745 5745 5745 5745 5744 5743 5742 5741 5739 5737 5735 5733 5730
5730 5730 5730 5730 5730 5730 5730 5730 5731 5731 5732 5733 5733 5734 5735 5735 5736 5737 5738 5740 5741 5742 5743 5744 5745 5746 5746 5747 5747 5747 5747 5747 5746 5746 5745 5743 5742 5741 5739 5736 5734 5731 5727
5735 5734 5734 5734 5735 5735 5735 5735 5736 5736 5737 5737 5738 5739 5739 5740 5741 5742 5743 5744 5745 5746 5746 5747 5748 5748 5749 5749 5749 5749 5748 5748 5747 5746 5745 5743 5742 5740 5737 5734 5731 5728 5724